"Pseudo-MPEC" for A10DvUe

Created 2021 Nov 26 22:07:03 UT using Find_Orb

Click here for an explanation of pseudo-MPECs

 
 Astrometry: 
     A10DvUe  C2021 11 25.36417402 38 29.72 +05 42 47.6    ~BPBq 18.89oVNEOCPT05
     A10DvUe  C2021 11 25.36738702 38 32.27 +05 42 38.6    ~BPBq 18.96oVNEOCPT05
     A10DvUe  C2021 11 25.38300602 38 44.68 +05 41 56.5    ~BPBq 19.06oVNEOCPT05
     A10DvUe  C2021 11 25.40240902 39 00.18 +05 41 03.8    ~BPBq 19.23oVNEOCPT05
     A10DvUe  C2021 11 25.49011002 40 12.17 +05 36 58.7    ~BPFb 18.87oVNEOCPT05
     A10DvUe  C2021 11 25.49020802 40 12.06 +05 37 04.1    ~BPFb 18.61oVNEOCPT08
     A10DvUe  C2021 11 25.49056702 40 12.57 +05 36 57.7    ~BPFb 19.03oVNEOCPT05
     A10DvUe  C2021 11 25.49066702 40 12.51 +05 37 02.3    ~BPFb 18.80oVNEOCPT08
     A10DvUe  C2021 11 25.49112702 40 12.92 +05 37 01.1    ~BPFb 18.94oVNEOCPT08
     A10DvUe  C2021 11 25.49148102 40 13.36 +05 36 54.9    ~BPFb 19.04oVNEOCPT05
     A10DvUe  C2021 11 25.49193802 40 13.75 +05 36 53.1    ~BPFb 18.96oVNEOCPT05
     A10DvUe  C2021 11 25.49204902 40 13.61 +05 36 57.0    ~BPFb 18.65oVNEOCPT08
     A10DvUe  C2021 11 25T;d`XaN!^0Vvkj9-h(=V!\'v;Vv^T?d.[)I9jQn($$anqo6fG!H(N51
     A10DvUe  C2021 11 25Q=^NV9G@!(#JumVCurGS3oK(,Kn-p5WhN_Dg-BiBG?i#beOdrbYwN51
     A10DvUe  C2021 11 25E?Hm(:,jy*1`H-PDTo411S`uK#UIHNKoU.3KHsoGW.g8JB-8SknnN51
     A10DvUe KC2021 11 26.07531402 49 58.44 +05 10 58.0    ~BQ2M 19.3 GXNEOCPY00
     A10DvUe KC2021 11 26.07968902 50 02.60 +05 10 43.2    ~BQ2M 19.2 GXNEOCPY00
     A10DvUe KC2021 11 26.08393302 50 06.65 +05 10 30.3    ~BQ2M 19.0 GXNEOCPY00
     A10DvUe KC2021 11 26=qI@sQEB,SVW!)L#a,eAtWEpd^I\O=PFhS@;+f^ksnIOwO,8\qY0734
     A10DvUe KC2021 11 26N%l=)(l!3mi@3_%SCq'ktVBIb[_3no;sOa6Yi]ZVP#Astrometry734
     A10DvUe KC2021 11 26w=bVK_MRPGbsqJ.0]RP/9@h(#H9-j%BFP(t\2uD_FnmW+J7]FP@5734
     A10DvUe KC2021 11 262x7K+=;d`:Bjv.e@n2h;iMed?L:`;M8SxCJn.dd,TSo?McQXtCxT734
     A10DvUe KC2021 11 26.='HWvOo)(mTvUr:WYndN387?.I9QGn9eObvK7lUs9con[c%:Wjh858
     A10DvUe KC2021 11 26k\Ydj)#uPK5oQlh85QR1E3O$(,npQ**;t3?J=D_gE6Y%XKntF`!Y858
     A10DvUe KC2021 11 265%;AN2sXp4-]-WTRpAQ,T0d%$9[Jy\]hycD1\V[Kc2trjnovHY;(858
     A10DvUe  C2021 11 26].c-akOpj8:UOp64.f.Z+yNTOQ4DYqRBY9vJhln[,I0W9dkGPy[5F51
     A10DvUe  C2021 11 26R0D(aXLt)redacted;Yprmf;94P]`WP$wT!3D.Ch6^X]ONu@q5UGF51
     A10DvUe  C2021 11 2658-FieH@s#S=1P_!h_FwGOwIJ=@9rg(eNN.9PN3T\*efjgU)_U,*F51
     A10DvUe KC2021 11 26#0/uPmr+2F3@`dIMr_W]K!$Z+=61$ti4]`e6Ex]Xwvg$clickn[,E94
     A10DvUe KC2021 11 26R]dfB(S`Qvt4:lN)sXf,v=(AQDV]PmG=5)sCiJ?=_4here03nmaLE94
     A10DvUe  C2021 11 26YmPu@K?'cIOefdH:-ld'c#oMk=@RiSyk)NfTU+6.e]u),i7xSr;1P93
     A10DvUe  C2021 11 26Ai^/.Mc-rforF[^!6Ck/RVl'_RpP*#F4C5j'Dx.a_'.A?c1=T@IdP93
     A10DvUe  C2021 11 26g*#s.$explanationW0$F.96i75xSNYaoR$[oXUrvvSpaN4LRZZEP93
     A10DvUe  C2021 11 26pI6_!i44*]g.r6@N/J1pth1H]\qE,u6Fv%Ze0qRrjB9r+UB=%=_kP93
     A10DvUe KC2021 11 26.84609203 05 16.13 +04 18 59.7    ~BQKq 18.8 GVNEOCPJ95
     A10DvUe hC2021 11 26.84785403 05 18.28 +04 18 52.6    ~BQKq 18.6 GVNEOCPJ95
     A10DvUe hC2021 11 26.85062703 05 21.78 +04 18 40.8    ~BQKq 18.5 GVNEOCPJ95

Station data:
(734) Farpoint Observatory, Eskridge  (N38.890107 W96.001400)  US/Kansas.
   Observer G. Hug. 0.69-m reflector + CCD.
(858) Tebbutt Observatory, Edgewood  (N35.093872 W106.220000)  US/New Mexico.
(E94) Gisborne (Possum Observatory)  (S38.629922 E177.883310)  New Zealand.
(F51) Pan-STARRS 1, Haleakala  (N20.707235 W156.255910)  US/Hawaii.
   Observers N. Primak, A. Schultz, S. Watters, J. Thiel, T. Goggia. Measurer
   PS1 Science Consortium. 1.8-m Ritchey-Chrétien + CCD.
(J95) Great Shefford  (N51.474969 W1.447003)  UK.  Observer P. Birtwhistle.
   0.40-m f/6.0 Schmidt-Cassegrain + CCD.
(N51) GROWTH India Telescope, IAO, Hanle  (N32.779244 E78.964610)  India.
(P93) Space Tracking and Communications Center, JAXA  (N34.672353
   E133.544330)  Japan.  Observers S. Okumura, T. Fujiwara. 1.0-m f/3.0
   reflector + CCD.
(T05) ATLAS-HKO, Haleakala  (N20.707573 W156.257010)  US/Hawaii.  Observers
   L. Denneau, A. Heinze, H. Weiland, J. Tonry, H. Flewelling, A.
   Fitzsimmons, D. Young, B. Stalder. Measurers L. Denneau, A. Heinze, J.
   Tonry. 0.5-m f/2.0 Schmidt + CCD.
(T08) ATLAS-MLO, Mauna Loa  (N19.536152 W155.576050)  US/Hawaii.  Observers
   L. Denneau, A. Heinze, H. Weiland, J. Tonry, H. Flewelling, A.
   Fitzsimmons, D. Young, B. Stalder. Measurers L. Denneau, A. Heinze, J.
   Tonry. 0.5-m f/2.0 Schmidt + CCD.
(Y00) SONEAR Observatory, Oliveira  (S20.715082 W44.784960)  Brazil.
   Observers C. Jacques, E. Pimentel, J. Barros. Measurer C. Jacques. 0.28-m
   f/2.2 astrograph + CCD.

Orbital elements:  A10DvUe
   Perihelion 2021 Dec 17.192880 +/- 0.00271692 TT =  4:37:44 (JD 2459565.692880)
Epoch 2021 Nov 26.0 TT = JDT 2459544.5   Earth MOID: 0.0108   Ma: 0.0462
M 354.83606094 +/- 0.0103607        (J2000 ecliptic)          AutoNEOCP
n   0.24366386 +/- 0.000470679      Peri.  222.55693 +/- 0.0093438
a   2.53868393 +/- 0.0032692        Node   227.13161 +/- 0.0058617
e   0.6154055 +/- 0.000497379       Incl.    1.28691 +/- 0.0009605
P   4.04                   H 25.4   G  0.15   U  7.6  
q 0.97636368 +/- 1.34509e-5    Q 4.10100417 +/- 0.00655179
From 37 observations 2021 Nov. 25-26 (35.7 hr); mean residual 0".51
Residuals in arcseconds: 
211125 T05  .25+  .19+    211125 N51  .31+  .83+    211126 F51  .28+  .09-    
211125 T05  .30+  .23-    211125 N51  .11+  .20+    211126 F51  1.4-  .27+    
211125 T05  .29+  .36-    211126 Y00  .36+  .00     211126 E94  .09-  .56+    
211125 T05  .17+  .38-    211126 Y00  .28-  .64-    211126 E94  .47+  .65+    
211125 T05  .63-  .17-    211126 Y00  .76-  .22+    211126 P93  .50+  .66-    
211125 T08  .36-  .95+    211126 734  .83+  .27-    211126 P93  .27+  .50-    
211125 T05  .43-  .13+    211126 734  .64+  .30-    211126 P93  .53+  .12-    
211125 T08  .56+  .47+    211126 734  .86+  .37-    211126 P93  .30+  .46-    
211125 T08  .87+  .59+    211126 734  .46+  .31-    211126 J95  .28+  .27+    
211125 T05  .17-  .05-    211126 858  .09+  .34-    211126 J95  .46-  .27+    
211125 T05  .12-  .54-    211126 858  .10+  .23-    211126 J95  .11+  .34-    
211125 T08  .47-  .87-    211126 858  .33+  .18-    
211125 N51  .31+  1.9+    211126 F51  .37+  .11-    

Ephemerides (geocentric):
Date (UTC) HH   RA              Dec         delta   r     elong  mag " sig PA
---- -- -- --  -------------   -----------  ------ ------ -----  --- ---- ---
2021 11 26 22  03 06 41.843   +04 17 45.49  .02991 1.0145 157.2 18.9 .161 142
2021 11 26 23  03 07 37.700   +04 14 52.11  .02974 1.0143 157.3 18.9 .170 142
2021 11 27 00  03 08 34.207   +04 11 56.53  .02957 1.0142 157.4 18.9 .179 141
2021 11 27 01  03 09 31.376   +04 08 58.69  .02939 1.0140 157.4 18.8 .188 141
2021 11 27 02  03 10 29.215   +04 05 58.58  .02922 1.0139 157.5 18.8 .197 140
2021 11 27 03  03 11 27.734   +04 02 56.16  .02905 1.0137 157.6 18.8 .207 140
2021 11 27 04  03 12 26.942   +03 59 51.38  .02888 1.0136 157.7 18.8 .216 140
2021 11 27 05  03 13 26.849   +03 56 44.22  .02871 1.0134 157.8 18.8 .226 139
2021 11 27 06  03 14 27.466   +03 53 34.64  .02854 1.0133 157.8 18.8 .236 139
2021 11 27 07  03 15 28.802   +03 50 22.60  .02837 1.0131 157.9 18.8 .246 139
2021 11 27 08  03 16 30.867   +03 47 08.07  .02820 1.0130 158.0 18.7 .256 138
2021 11 27 09  03 17 33.672   +03 43 51.00  .02803 1.0128 158.1 18.7 .266 138
2021 11 27 10  03 18 37.226   +03 40 31.36  .02787 1.0127 158.2 18.7 .276 138
2021 11 27 11  03 19 41.541   +03 37 09.12  .02770 1.0125 158.2 18.7 .287 138
2021 11 27 12  03 20 46.628   +03 33 44.22  .02753 1.0124 158.3 18.7 .297 138
2021 11 27 13  03 21 52.496   +03 30 16.64  .02737 1.0122 158.4 18.7 .308 137
2021 11 27 14  03 22 59.157   +03 26 46.33  .02720 1.0121 158.5 18.6 .319 137
2021 11 27 15  03 24 06.621   +03 23 13.26  .02704 1.0119 158.5 18.6 .330 137
2021 11 27 16  03 25 14.901   +03 19 37.38  .02688 1.0118 158.6 18.6 .341 137
2021 11 27 17  03 26 24.006   +03 15 58.66  .02672 1.0116 158.7 18.6 .353 137
2021 11 27 18  03 27 33.948   +03 12 17.05  .02655 1.0115 158.8 18.6 .364 137
2021 11 27 19  03 28 44.739   +03 08 32.52  .02639 1.0113 158.8 18.6 .376 136
2021 11 27 20  03 29 56.390   +03 04 45.02  .02623 1.0112 158.9 18.6 .387 136
2021 11 27 21  03 31 08.912   +03 00 54.52  .02607 1.0110 159.0 18.5 .399 136
2021 11 27 22  03 32 22.317   +02 57 00.97  .02591 1.0109 159.0 18.5 .411 136
2021 11 27 23  03 33 36.618   +02 53 04.32  .02576 1.0108 159.1 18.5 .424 136
2021 11 28 00  03 34 51.825   +02 49 04.55  .02560 1.0106 159.1 18.5 .436 136
2021 11 28 01  03 36 07.951   +02 45 01.61  .02544 1.0105 159.2 18.5 .448 136
2021 11 28 02  03 37 25.007   +02 40 55.46  .02529 1.0103 159.2 18.5 .461 136
2021 11 28 03  03 38 43.005   +02 36 46.05  .02513 1.0102 159.3 18.4 .474 135
2021 11 28 04  03 40 01.958   +02 32 33.35  .02498 1.0100 159.3 18.4 .486 135
2021 11 28 05  03 41 21.878   +02 28 17.32  .02483 1.0099 159.4 18.4 .499 135
2021 11 28 06  03 42 42.776   +02 23 57.92  .02468 1.0097 159.4 18.4 .513 135
2021 11 28 07  03 44 04.665   +02 19 35.10  .02453 1.0096 159.5 18.4 .526 135
2021 11 28 08  03 45 27.557   +02 15 08.83  .02438 1.0095 159.5 18.4 .539 135
2021 11 28 09  03 46 51.463   +02 10 39.06  .02423 1.0093 159.5 18.4 .553 135
2021 11 28 10  03 48 16.397   +02 06 05.77  .02408 1.0092 159.6 18.3 .567 135
2021 11 28 11  03 49 42.370   +02 01 28.91  .02393 1.0090 159.6 18.3 .580 135
2021 11 28 12  03 51 09.395   +01 56 48.44  .02379 1.0089 159.6 18.3 .594 135
2021 11 28 13  03 52 37.483   +01 52 04.33  .02364 1.0087 159.6 18.3 .608 135
2021 11 28 14  03 54 06.646   +01 47 16.53  .02350 1.0086 159.6 18.3 .623 135
2021 11 28 15  03 55 36.897   +01 42 25.03  .02335 1.0085 159.6 18.3 .637 135
2021 11 28 16  03 57 08.246   +01 37 29.78  .02321 1.0083 159.6 18.3 .651 134
2021 11 28 17  03 58 40.707   +01 32 30.75  .02307 1.0082 159.6 18.2 .666 134
2021 11 28 18  04 00 14.289   +01 27 27.90  .02293 1.0080 159.6 18.2 .681 134
2021 11 28 19  04 01 49.006   +01 22 21.22  .02279 1.0079 159.6 18.2 .695 134
2021 11 28 20  04 03 24.868   +01 17 10.66  .02266 1.0078 159.6 18.2 .710 134
2021 11 28 21  04 05 01.886   +01 11 56.20  .02252 1.0076 159.5 18.2 .725 134